CAPE
3 3 2 2 2 2 2 3 4 3 3 3 2 3 1 2 1 2 3 3 3 2 3 2 3 3 1 1 2 2 0 0 0 0 0 0 0 0 0 2360 3222 3542 2553 1355 996 1005 1027 1115 1502 1838 1835 2044 2293 2744 1760 2946 2363 2080 1460 1256 378 1078 798 1126 1292 1372 1243 1716 1487 989 1301 1667 1514 1326 1840 1309 1352 1676 1663 1455 1545 1174 1008 1346 1061 1367 1301 1000
3 3 2 3 2 3 2 2 2 3 2 3 2 2 2 1 2 2 3 2 3 4 2 2 2 2 1 1 2 1 0 0 0 0 0 161 453 554 816 3366 3471 2877 2610 1074 966 1027 1323 1459 1617 1864 2084 2335 1203 2312 1545 2759 1729 1684 1542 543 635 1161 1202 1636 1251 1229 1905 1415 1407 1378 1143 1342 1894 1273 1665 1480 2007 1680 1770 1711 1655 1551 1530 1306 1324 1352 1178 1000
2 2 3 2 2 2 2 2 3 3 3 3 2 2 2 2 3 3 2 3 4 4 3 2 2 1 0 1 2 0 0 0 0 0 253 445 572 711 2046 3259 3096 2410 1108 1102 1048 1148 1594 1833 1580 1536 1865 1594 1279 769 1991 2003 1841 1709 1727 637 699 1250 1340 1710 1800 1888 1520 1501 1564 1133 1128 1183 2146 1350 1481 1474 2224 1833 1897 1929 1796 1881 1754 1442 1401 1343 1275 1050
2 3 3 3 2 2 2 2 3 3 4 2 3 2 1 2 3 3 2 4 2 3 3 2 1 0 1 1 2 0 0 0 0 0 327 454 556 1430 2824 3090 2721 2208 1396 1136 1100 1414 1286 1508 1337 1163 1543 1720 568 1600 1372 997 2070 921 1427 647 1114 1252 1296 1128 2171 2169 2045 1569 1768 1464 1115 1344 1429 1431 1330 1337 1676 1708 1924 1992 1952 1759 1866 1548 1455 1469 1281 1182
3 3 2 3 2 2 2 3 3 3 3 4 2 2 2 2 2 2 3 2 3 3 3 2 0 0 1 2 1 0 0 0 0 166 286 579 1000 1427 2985 3154 2348 1376 1153 1106 1184 1455 1447 1494 1176 975 1062 367 199 1268 174 1407 782 1490 843 1258 1310 1825 1484 1928 2174 2665 2126 1464 1613 1497 1503 1696 1526 1692 1449 1450 1501 1486 1757 2063 1803 1623 1832 1500 1426 1487 1352 1240
4 4 4 3 3 2 3 3 3 3 2 3 2 1 2 2 2 2 3 3 2 2 4 1 0 0 0 1 0 0 0 0 0 215 320 1067 1801 2059 2947 2904 2192 1408 1000 1185 1344 1318 1231 1177 961 1496 261 23 0 47 10 647 796 890 896 945 1413 1515 1750 1774 2432 2553 2170 2075 1755 1901 1768 1764 1355 1998 1783 1607 1365 2298 1595 874 1285 1643 1746 1153 1334 1376 1345 1265
4 4 4 4 2 3 3 2 4 4 3 2 2 2 2 2 2 3 3 2 2 4 1 1 0 0 1 0 0 0 0 0 311 616 684 1690 2503 2785 3042 2569 2536 954 795 951 848 784 712 669 454 0 11 0 0 18 5 125 945 826 371 348 1506 2038 2058 2068 2281 2600 2083 2072 2215 1919 1300 1604 1728 1586 2324 1588 1073 1413 1560 1120 1078 1193 1309 1226 1313 1294 1316 1294
3 4 4 4 5 4 4 3 3 4 2 2 2 2 2 2 2 2 2 2 3 3 3 0 1 0 1 0 0 0 0 4 318 909 1743 1943 2669 2695 2578 1214 586 374 581 485 261 174 18 6 0 0 1 0 0 0 61 343 951 356 0 162 1603 1909 1998 2229 2028 2062 2384 2603 2011 1693 1537 2168 1849 1938 1908 1911 1338 1454 1350 1105 1025 1275 1490 1358 1344 1273 1276 1254
6 3 4 4 4 2 3 3 4 3 3 2 2 2 2 2 2 1 2 4 4 3 1 1 0 0 2 0 0 0 0 0 272 498 359 553 1342 1988 909 474 87 35 74 9 0 0 0 0 0 0 0 0 0 0 0 1 932 0 0 412 564 1630 2156 2229 2369 2544 2378 2619 2387 1906 1819 1937 2012 1400 1214 1224 1398 1778 1270 1001 1197 1470 1431 1388 1352 1266 1222 1171
5 2 3 3 3 4 3 3 3 3 2 0 2 2 4 2 2 3 3 2 2 1 1 1 0 1 0 0 0 0 0 57 633 333 300 308 984 936 576 266 104 0 0 0 0 0 0 0 0 0 0 0 0 0 0 0 0 0 0 0 253 1086 1870 2309 2645 2888 2655 2570 2356 2158 2069 2403 2464 1341 1612 1039 1903 2347 1334 1438 1459 1482 1446 1384 1330 1278 1206 864
4 3 3 3 4 5 4 5 3 2 2 2 1 3 4 2 3 3 4 2 0 1 1 0 0 0 0 0 0 0 0 0 238 468 257 286 328 708 684 70 59 0 0 0 0 0 0 0 0 0 0 0 0 0 0 0 0 0 0 75 1385 1620 2097 2544 2819 3112 2685 2884 2446 2437 2417 2362 2264 1861 1605 2519 1459 1682 1566 1928 1791 1533 1493 1284 1464 1334 1309 884
5 4 4 2 6 5 6 4 3 2 2 3 3 1 2 3 3 4 2 0 0 0 0 1 0 0 0 0 0 0 0 0 9 147 300 4 1 11 2 1 0 0 0 0 0 0 0 0 0 0 0 0 0 0 0 0 0 0 33 243 415 1818 2710 2644 2843 3084 2443 2876 2353 2770 2594 2570 2656 2238 2156 1990 2150 1869 2149 2123 2010 1722 1552 1596 1678 1505 1447 1267
6 5 6 5 6 6 3 2 2 2 3 3 3 2 2 2 4 1 1 0 0 0 0 0 0 0 0 0 0 0 0 0 0 0 0 0 0 0 0 0 0 0 0 0 0 0 0 0 0 0 0 0 0 0 0 0 0 0 1249 344 147 1365 2018 2202 3351 3384 2410 3668 2490 2118 668 574 2073 2164 2085 2158 2363 2281 2486 2177 1834 1875 1757 1788 1804 1656 1604 1460
6 6 4 6 5 3 2 3 2 4 2 2 2 3 2 2 1 1 1 0 0 0 0 0 0 0 0 0 0 0 0 0 0 0 0 0 0 0 0 0 0 0 0 0 0 0 0 0 0 0 0 0 0 0 0 0 0 0 29 240 3 0 197 2116 2708 2758 2675 3382 2658 2038 1217 761 1622 2136 1999 1705 2303 2302 2137 1893 1809 2074 1960 2032 2094 1953 1847 1766
5 3 3 3 6 3 2 2 3 3 3 1 1 2 2 0 0 0 1 0 0 0 0 0 0 0 0 0 0 0 0 0 0 0 0 0 0 0 0 0 0 0 0 0 0 0 0 0 0 0 0 0 0 0 0 0 0 0 0 0 0 0 556 2529 2240 1711 2503 3451 2318 2064 589 687 1641 1860 2358 1377 2303 2162 2038 1662 1773 1978 2064 2162 2231 2149 1968 1847
3 3 4 4 5 3 3 2 2 2 3 1 1 2 0 0 0 0 0 0 0 0 0 0 0 0 0 0 22 18 0 0 0 0 0 0 0 0 0 0 0 0 0 0 0 0 0 0 0 0 0 0 0 0 0 0 0 0 0 0 0 0 0 2582 1237 2111 2798 3087 2805 1768 1267 546 1764 1714 1609 1532 2110 1976 2037 1896 1746 2273 2379 2234 2072 2148 2076 2095
3 3 6 7 4 3 2 2 2 2 0 1 1 0 0 0 0 0 1 0 0 0 0 0 0 0 0 0 0 0 0 0 0 0 0 0 0 0 0 0 0 0 0 0 0 0 0 0 0 0 0 0 0 0 0 0 0 0 0 0 0 0 0 0 1324 1878 2049 1783 2738 2385 1526 861 945 1540 1583 1442 1785 1869 1874 2057 2067 2420 2306 2361 2269 2162 2141 2303
4 4 6 2 3 4 3 3 4 1 1 0 1 0 0 0 0 0 0 0 0 0 0 0 0 0 0 0 0 0 0 0 0 0 0 0 0 0 0 0 0 0 0 0 0 0 0 0 0 0 0 0 0 0 0 0 0 0 0 0 0 0 0 0 0 1749 1428 1568 1248 2256 1597 1045 1324 1730 1352 1550 1526 1622 1849 1869 2019 2199 2127 2486 2201 2241 2282 2228
4 2 2 4 3 3 3 4 1 1 2 0 0 0 0 0 0 0 0 0 0 0 0 0 0 0 0 0 0 0 0 0 0 0 0 0 0 0 0 0 0 0 0 0 0 0 0 0 0 0 0 0 0 0 0 0 0 0 0 0 0 0 0 0 23 113 93 1695 1813 920 858 375 1923 1495 1469 1594 1514 1894 2005 1894 2207 2249 2302 2606 2274 2176 2306 2266
1 3 1 5 4 4 3 0 2 2 0 0 0 0 0 0 0 0 0 0 0 0 0 0 0 0 0 0 0 0 0 0 0 0 0 0 0 0 0 0 0 0 0 0 0 0 0 0 0 0 0 0 0 0 0 0 0 0 0 0 0 0 0 0 30 215 360 1198 944 972 1022 818 775 1073 1908 1589 1851 1770 2052 2085 2297 2442 2340 2536 2278 2062 2328 2306
2 2 4 2 2 2 3 1 2 0 1 0 0 0 1 0 0 0 0 0 0 0 0 0 0 0 0 0 0 0 0 0 0 0 0 0 0 0 0 0 0 0 0 0 0 0 0 0 0 0 0 0 0 0 0 0 0 0 0 0 0 0 0 0 0 1421 1016 1682 816 498 830 865 1062 862 1180 1884 1660 1614 1699 1997 2013 2164 2363 2168 2295 2043 2297 2604
3 1 3 2 1 2 3 0 2 1 0 0 0 0 0 0 0 0 0 0 0 0 0 0 0 0 0 0 0 0 0 0 0 0 0 0 0 0 0 0 0 0 0 0 0 0 0 0 0 0 0 0 0 0 0 0 0 0 0 0 0 0 0 0 1301 1252 1400 1640 499 556 602 564 694 950 1107 1619 1852 2004 1894 1877 1854 2105 2402 2451 2214 2196 2283 2422
2 2 0 3 1 3 1 3 0 0 0 0 0 0 0 0 0 0 0 0 0 0 0 0 0 0 0 0 0 0 0 0 0 0 0 0 0 0 0 0 0 0 0 0 0 0 0 0 0 0 0 0 0 0 0 0 0 0 0 0 0 0 0 0 571 1666 1412 1579 1002 494 196 770 811 959 1387 1383 1206 1608 1870 2232 2305 2249 2512 2278 2221 2476 2335 2297
1 1 3 1 2 1 2 0 2 0 0 0 0 0 0 0 0 0 0 0 0 0 0 0 0 0 0 0 0 0 0 0 0 0 0 0 0 0 0 0 0 0 0 0 0 0 0 0 0 0 0 0 0 0 0 0 0 0 0 0 0 0 0 0 459 1495 1069 859 610 852 387 174 889 1356 1688 2112 2049 2075 1737 1435 2236 2628 2451 2633 2832 2777 2655 2402
3 2 1 4 0 2 0 1 0 0 0 0 0 0 0 0 0 0 0 0 0 0 0 0 0 0 0 0 0 0 0 0 0 0 0 0 0 0 0 0 0 0 0 0 0 0 0 0 0 0 0 0 0 0 0 0 0 0 0 0 0 0 0 0 0 267 440 505 430 665 18 153 418 470 1339 1742 1715 1720 2115 2494 2717 2995 3091 2628 2682 2723 2733 2648
2 2 1 1 2 1 2 0 0 0 0 0 0 0 0 0 0 0 0 0 0 0 0 0 0 0 0 0 0 0 0 0 0 0 0 0 0 0 0 0 0 0 0 0 0 0 0 0 0 0 0 0 0 0 0 0 0 0 0 0 0 0 0 0 0 0 0 3 208 292 0 94 81 830 1252 1655 1746 1897 2128 2121 1920 2101 2163 2591 2726 2839 2578 2368
0 2 2 2 1 1 0 0 0 0 0 0 0 0 0 0 0 0 19 4 0 0 0 0 0 0 0 0 0 0 0 0 0 0 0 0 0 0 0 0 0 0 0 0 0 0 0 0 0 0 0 0 0 0 0 0 0 0 0 0 0 0 0 0 0 0 0 0 32 17 0 0 19 824 1301 1688 1866 2071 2316 2435 2489 2287 2424 2322 2236 2292 2518 2452
3 2 2 2 1 0 0 0 0 0 0 0 0 0 0 0 0 0 25 0 0 0 0 0 0 0 0 0 0 0 0 0 0 0 0 0 0 0 0 0 0 0 0 0 0 0 0 0 0 0 0 0 0 0 0 0 0 0 0 0 0 0 0 0 0 0 0 0 0 0 0 0 0 860 1345 1308 1684 1998 2239 2427 2415 2345 2300 2067 2114 2023 2134 2227
2 2 0 1 0 0 0 0 0 0 0 0 0 0 0 0 0 3 89 76 0 0 0 0 0 0 0 0 0 0 0 0 0 0 0 0 0 0 0 0 0 0 0 0 0 0 0 0 0 0 0 0 0 0 0 0 0 0 0 0 0 0 0 0 0 0 0 0 0 0 0 0 0 837 1015 928 1118 1721 1984 2008 2006 2029 1960 1826 1682 1600 1556 1662
2 1 0 2 1 0 0 0 0 0 0 0 0 0 0 0 0 50 12 2 0 0 0 0 0 0 0 0 0 0 0 0 0 0 0 0 0 0 0 0 0 0 0 0 0 0 0 0 0 0 0 0 0 0 0 0 0 0 0 0 0 0 0 0 0 0 0 0 0 8 0 0 0 136 317 255 1310 1688 1650 1745 1716 1715 1670 1525 1447 1403 1368 1369
1 2 0 0 0 0 0 0 0 0 0 0 0 0 0 0 27 26 0 43 0 0 0 0 0 0 0 0 0 0 0 0 0 0 0 0 0 0 0 0 0 0 0 0 0 0 0 0 0 0 0 0 0 0 0 0 0 0 0 0 0 0 0 0 0 0 0 0 252 88 2 5 0 555 888 1335 1319 1601 1690 1623 1514 1387 1412 1370 1277 1066 1023 1004
1 1 0 0 0 0 0 0 0 0 0 0 0 0 0 2 0 38 0 0 0 0 0 0 0 0 0 0 0 0 0 0 0 0 0 0 0 0 0 0 0 0 0 0 0 0 0 0 0 0 0 0 0 0 0 0 0 0 0 0 0 0 0 0 8 0 0 71 361 103 30 59 5 8 1349 1222 1352 1435 1624 1552 1419 1182 1091 1010 885 816 875 780
0 0 1 0 0 0 0 0 0 0 0 0 0 0 0 0 0 0 10 0 0 0 0 0 0 0 0 0 0 0 0 0 0 0 0 0 0 0 0 0 0 0 0 0 0 0 0 0 0 0 0 0 0 0 0 0 0 0 0 0 0 0 0 0 0 0 0 0 77 99 90 0 0 1014 930 1178 1367 1430 1426 1370 1282 1163 997 887 652 816 728 747
0 0 0 0 0 0 0 0 0 0 0 0 0 0 0 0 1 19 12 0 0 0 0 0 0 0 0 0 0 0 0 0 0 0 0 0 0 0 0 0 0 0 0 0 0 0 0 0 0 0 0 0 0 0 0 0 0 0 0 0 0 0 0 0 0 0 0 0 20 98 0 0 121 1326 928 1250 1202 1259 1165 1108 1048 887 714 752 755 914 721 785
0 0 0 0 0 0 0 0 0 0 0 0 0 0 0 0 32 0 0 0 0 0 0 0 0 0 0 0 0 0 0 0 0 0 0 0 0 0 0 0 0 0 0 0 0 0 0 0 0 0 0 0 0 0 0 0 0 0 0 0 0 0 0 0 0 0 0 0 0 141 4 257 732 1366 1317 1092 1021 1066 986 857 738 700 650 822 910 717 641 473
0 0 0 0 0 0 0 0 0 0 0 0 0 0 0 7 14 0 2 0 0 0 0 0 0 0 0 0 0 0 0 0 0 0 0 0 0 0 0 0 0 0 0 0 0 0 0 0 0 0 0 0 0 0 0 0 0 0 0 0 0 0 0 0 0 0 0 0 0 0 95 207 820 752 1130 1009 865 949 803 597 638 668 697 903 728 660 626 526
0 0 0 0 0 0 0 0 0 0 0 0 0 0 0 0 0 0 2 0 0 0 0 0 0 0 0 0 0 0 0 0 0 0 0 0 0 0 0 0 0 0 0 0 0 0 0 0 0 0 0 0 0 0 0 0 0 0 0 0 0 0 0 0 0 30 42 4 0 140 85 6 340 134 895 1049 930 758 843 618 658 808 872 794 828 932 956 808
0 0 34 0 0 0 0 0 0 0 0 0 0 0 45 0 0 0 0 0 0 0 0 0 0 0 0 0 0 0 0 0 0 0 0 0 0 0 0 0 0 0 0 0 0 0 0 0 0 0 0 0 0 0 0 0 0 0 0 0 0 0 0 0 0 0 0 2 26 27 139 57 0 261 827 1304 881 919 960 972 825 800 963 932 927 909 853 736
0 0 83 0 0 0 0 0 0 0 0 0 0 0 0 0 0 0 0 0 0 0 0 0 0 0 0 0 0 0 0 0 0 0 0 0 0 0 0 0 0 0 0 0 0 0 0 0 0 0 0 0 0 0 0 0 0 0 0 0 0 0 0 0 2 0 0 0 0 0 152 195 99 554 451 628 898 881 1204 1002 1057 1204 1034 1003 1001 798 719 703
88 267 0 0 0 0 0 0 0 0 0 0 0 0 0 0 0 0 0 0 0 0 0 0 0 0 0 0 0 0 0 0 0 0 0 0 0 0 0 0 0 0 0 0 0 0 0 0 0 0 0 0 0 0 0 0 0 0 0 0 0 0 0 0 0 0 0 0 0 0 2 7 1021 951 1120 1317 847 976 1242 1302 1460 1229 1167 913 851 716 678 757
107 145 15 0 0 0 0 0 0 0 0 0 0 0 0 0 0 0 0 0 7 0 0 0 0 0 0 0 0 0 0 0 0 0 0 0 0 0 0 0 0 0 0 0 0 0 0 0 0 0 0 0 0 0 0 0 0 0 0 0 0 0 0 0 0 0 0 0 0 0 5 167 459 670 1225 973 1281 1420 1510 1572 1377 1274 1060 951 684 568 626 668
76 225 60 0 0 0 0 0 0 0 0 0 0 0 0 84 0 0 0 0 0 0 0 0 0 0 0 0 0 0 0 0 0 0 0 0 0 0 0 0 0 0 0 0 0 0 0 0 0 0 0 0 0 0 0 0 0 0 0 0 0 0 0 0 0 0 0 0 0 0 0 0 590 871 980 1302 1470 1575 1505 1342 1593 1200 995 858 581 555 741 878
186 295 5 0 0 0 0 6 27 0 0 0 0 0 0 0 0 0 0 1 0 0 0 0 0 0 0 0 0 0 0 0 0 0 0 0 0 0 0 0 0 0 0 0 0 0 195 0 0 0 0 0 0 0 0 0 0 0 0 0 0 0 0 0 0 29 2 6 56 19 32 468 1046 1103 1424 1176 1242 1231 1161 1098 1054 763 694 646 632 701 891 970
210 266 67 0 0 0 32 140 9 1 2 54 24 26 20 0 9 0 4 5 0 0 0 0 0 0 0 0 0 0 0 0 0 0 0 0 0 0 0 0 0 0 0 0 0 0 0 10 0 0 0 0 0 0 0 0 0 0 0 51 0 1 0 0 0 0 0 0 0 5 7 41 483 1011 1064 1162 937 1108 898 849 838 712 704 564 543 743 1011 1071
208 117 141 30 0 0 152 181 118 145 99 45 146 26 24 59 14 0 26 68 1 0 0 0 0 0 0 0 0 0 0 0 0 0 0 0 0 0 0 0 0 0 0 0 12 0 0 0 0 0 0 0 0 0 5 0 0 0 0 0 0 0 0 0 0 0 12 126 126 6 1 625 812 897 968 760 818 1099 961 764 779 634 658 575 418 462 606 831
358 414 270 134 2 26 68 77 90 116 152 220 89 42 61 58 16 0 0 1 1 0 0 0 0 0 0 0 0 0 0 0 3 0 0 0 0 0 0 0 0 0 72 18 0 0 0 0 0 0 0 0 4 0 0 0 0 0 0 0 0 4 0 0 0 1 5 37 163 102 33 67 354 721 918 844 674 706 731 816 731 596 525 389 340 435 604 747
69 378 442 414 257 148 248 179 181 136 216 214 202 272 59 10 64 21 0 0 0 0 0 0 0 0 0 0 0 0 0 0 0 0 0 0 0 0 0 97 0 25 85 0 0 0 0 0 0 0 0 0 0 0 0 0 0 0 0 0 0 0 4 0 0 29 317 52 32 1091 620 84 55 306 591 509 554 534 528 596 648 470 306 282 393 549 578 723
432 302 281 107 127 323 175 292 146 186 216 171 278 224 200 183 59 26 0 0 0 0 0 0 0 0 0 0 0 0 0 0 0 19 0 0 0 0 0 0 1 122 588 0 0 0 0 0 0 0 0 0 0 0 0 0 0 0 0 0 0 0 11 0 0 30 80 8 2 405 214 36 13 101 296 352 350 322 196 452 468 352 372 456 475 496 488 487
57 59 130 36 243 356 176 150 122 249 260 167 286 265 238 168 32 22 1 0 0 0 0 0 0 0 0 0 0 0 0 0 2 24 0 0 0 0 0 0 0 0 0 0 0 6 0 0 0 0 0 0 0 0 0 0 0 0 0 0 0 0 6 32 40 56 10 0 39 41 217 149 46 103 129 205 217 144 188 262 267 310 216 271 391 436 388 490
0 30 142 3 78 24 185 232 239 231 340 302 248 346 83 42 21 23 10 0 0 0 0 0 0 0 0 0 0 0 0 0 0 2 0 0 0 0 0 0 0 0 0 0 0 29 0 0 2 0 0 0 0 0 0 0 0 0 2 1 3 0 0 36 52 109 98 3 0 0 73 144 221 184 171 115 158 201 110 233 259 185 183 189 263 334 452 472
0 0 14 85 145 315 188 207 180 372 260 316 142 232 61 57 12 0 23 18 26 23 3 0 0 0 0 0 0 0 0 0 0 0 0 0 0 0 0 0 0 0 0 0 0 10 0 26 0 0 0 0 0 0 0 0 4 10 13 0 1 5 3 18 48 65 70 44 74 154 107 96 293 172 131 203 138 254 246 227 150 62 36 70 194 325 363 365
0 1 0 76 272 472 41 3 238 155 179 177 39 19 28 124 32 0 0 6 26 1 2 6 5 0 0 1 0 0 0 0 0 0 0 0 0 0 0 0 0 0 0 0 0 0 0 0 0 0 0 0 41 0 0 1 10 14 58 42 17 3 0 0 43 225 123 74 58 48 121 498 305 256 71 102 52 1 11 85 113 47 61 62 126 210 224 228
Wind_Speed
nan nan nan nan nan nan nan nan nan nan nan nan nan nan nan nan nan nan nan nan nan nan nan nan nan nan nan nan nan nan nan nan nan nan nan nan nan nan nan 14 22 19 17 15 7 8 7 8 7 6 10 10 5 6 6 7 8 7 5 8 7 6 7 8 7 8 6 7 2 2 3 3 1 2 3 5 5 10 3 4 4 7 6 11 8 9 12 12
nan nan nan nan nan nan nan nan nan nan nan nan nan nan nan nan nan nan nan nan nan nan nan nan nan nan nan nan nan nan nan nan nan nan nan 5 8 10 14 20 20 19 22 17 14 12 9 11 10 9 11 8 3 4 6 3 6 8 5 7 7 9 8 6 7 5 5 6 4 1 3 4 2 3 2 5 4 6 3 4 1 1 5 7 9 12 12 12
nan nan nan nan nan nan nan nan nan nan nan nan nan nan nan nan nan nan nan nan nan nan nan nan nan nan nan nan nan nan nan nan nan nan 9 11 11 12 16 20 20 21 22 15 16 12 11 13 11 13 10 11 5 6 4 3 6 5 8 10 9 7 7 6 5 4 3 5 4 1 0 2 2 2 3 5 2 5 6 3 3 3 2 4 9 10 11 10
nan nan nan nan nan nan nan nan nan nan nan nan nan nan nan nan nan nan nan nan nan nan nan nan nan nan nan nan nan nan nan nan nan nan 5 10 13 14 19 20 20 23 20 17 15 15 13 12 13 14 13 13 5 7 6 4 7 6 6 11 9 9 6 6 5 4 4 4 4 3 2 2 2 3 3 4 3 4 5 5 5 2 3 5 7 10 9 8
nan nan nan nan nan nan nan nan nan nan nan nan nan nan nan nan nan nan nan nan nan nan nan nan nan nan nan nan nan nan nan nan nan 7 6 9 12 16 18 19 20 20 19 15 15 16 17 14 14 16 15 11 8 8 5 4 4 5 9 7 8 6 6 8 7 5 4 4 4 4 3 4 3 2 4 2 4 4 5 1 5 3 5 6 7 8 8 8
nan nan nan nan nan nan nan nan nan nan nan nan nan nan nan nan nan nan nan nan nan nan nan nan nan nan nan nan nan nan nan nan nan 7 8 9 11 15 16 16 20 19 16 17 18 16 18 16 17 16 12 nan nan nan nan 5 4 4 6 6 6 6 6 6 4 4 1 3 2 2 3 2 2 1 2 5 5 5 2 6 1 3 6 7 6 7 7 8
nan nan nan nan nan nan nan nan nan nan nan nan nan nan nan nan nan nan nan nan nan nan nan nan nan nan nan nan nan nan nan nan 9 6 11 11 12 15 14 14 16 17 16 18 19 19 18 17 18 nan nan nan nan nan nan 7 3 4 6 8 5 4 3 2 1 3 2 1 2 2 1 4 2 3 2 3 3 2 3 4 4 4 8 9 9 7 7 7
nan nan nan nan nan nan nan nan nan nan nan nan nan nan nan nan nan nan nan nan nan nan nan nan nan nan nan nan nan nan nan nan 4 6 12 12 13 14 14 14 15 13 15 18 17 19 nan nan nan nan nan nan nan nan nan 8 4 5 nan 7 4 5 4 4 2 3 1 1 1 1 3 3 3 4 2 2 2 3 3 2 3 6 8 9 9 8 6 6
nan nan nan nan nan nan nan nan nan nan nan nan nan nan nan nan nan nan nan nan nan nan nan nan nan nan nan nan nan nan nan nan 5 9 17 16 16 16 18 13 nan nan nan nan nan nan nan nan nan nan nan nan nan nan nan nan 4 nan nan 5 6 5 4 5 4 4 5 2 3 4 2 1 2 3 5 3 3 5 4 6 6 7 9 8 7 8 7 6
nan nan nan nan nan nan nan nan nan nan nan nan nan nan nan nan nan nan nan nan nan nan nan nan nan nan nan nan nan nan nan nan 9 12 18 16 16 17 19 14 16 nan nan nan nan nan nan nan nan nan nan nan nan nan nan nan nan nan nan nan 6 3 4 4 6 4 4 4 5 5 3 1 1 4 6 6 8 7 6 8 8 8 7 6 6 7 6 6
nan nan nan nan nan nan nan nan nan nan nan nan nan nan nan nan nan nan nan nan nan nan nan nan nan nan nan nan nan nan nan nan 10 12 17 16 18 17 18 nan nan nan nan nan nan nan nan nan nan nan nan nan nan nan nan nan nan nan nan nan 5 4 4 4 5 5 5 5 7 5 3 2 3 4 1 6 6 7 7 11 10 8 7 6 6 7 7 7
nan nan nan nan nan nan nan nan nan nan nan nan nan nan nan nan nan nan nan nan nan nan nan nan nan nan nan nan nan nan nan nan nan 12 15 nan nan nan nan nan nan nan nan nan nan nan nan nan nan nan nan nan nan nan nan nan nan nan nan 9 5 8 8 7 7 7 7 3 5 6 7 8 7 5 5 5 4 6 8 10 12 10 10 8 7 7 8 8
nan nan nan nan nan nan nan nan nan nan nan nan nan nan nan nan nan nan nan nan nan nan nan nan nan nan nan nan nan nan nan nan nan nan nan nan nan nan nan nan nan nan nan nan nan nan nan nan nan nan nan nan nan nan nan nan nan nan 10 12 13 10 8 7 6 7 9 3 5 4 7 6 8 6 7 6 6 8 9 10 11 11 10 10 10 8 9 9
nan nan nan nan nan nan nan nan nan nan nan nan nan nan nan nan nan nan nan nan nan nan nan nan nan nan nan nan nan nan nan nan nan nan nan nan nan nan nan nan nan nan nan nan nan nan nan nan nan nan nan nan nan nan nan nan nan nan nan 13 nan nan 1 6 9 8 11 4 9 9 7 7 7 5 3 6 8 9 9 11 11 11 10 11 11 10 10 10
nan nan nan nan nan nan nan nan nan nan nan nan nan nan nan nan nan nan nan nan nan nan nan nan nan nan nan nan nan nan nan nan nan nan nan nan nan nan nan nan nan nan nan nan nan nan nan nan nan nan nan nan nan nan nan nan nan nan nan nan nan nan 3 6 9 10 10 7 10 11 9 4 5 5 5 9 10 11 9 12 12 12 11 11 11 11 11 10
nan nan nan nan nan nan nan nan nan nan nan nan nan nan nan nan nan nan nan nan nan nan nan nan nan nan nan nan nan nan nan nan nan nan nan nan nan nan nan nan nan nan nan nan nan nan nan nan nan nan nan nan nan nan nan nan nan nan nan nan nan nan nan 8 6 9 7 5 10 12 6 6 8 5 7 9 11 11 10 10 12 13 13 12 11 11 9 10
nan nan nan nan nan nan nan nan nan nan nan nan nan nan nan nan nan nan nan nan nan nan nan nan nan nan nan nan nan nan nan nan nan nan nan nan nan nan nan nan nan nan nan nan nan nan nan nan nan nan nan nan nan nan nan nan nan nan nan nan nan nan nan nan 3 6 7 12 9 13 11 5 7 9 8 11 12 12 11 12 12 13 13 13 13 12 10 10
nan nan nan nan nan nan nan nan nan nan nan nan nan nan nan nan nan nan nan nan nan nan nan nan nan nan nan nan nan nan nan nan nan nan nan nan nan nan nan nan nan nan nan nan nan nan nan nan nan nan nan nan nan nan nan nan nan nan nan nan nan nan nan nan nan 4 9 10 13 12 13 10 11 11 10 11 14 15 13 14 15 15 14 14 13 13 11 10
nan nan nan nan nan nan nan nan nan nan nan nan nan nan nan nan nan nan nan nan nan nan nan nan nan nan nan nan nan nan nan nan nan nan nan nan nan nan nan nan nan nan nan nan nan nan nan nan nan nan nan nan nan nan nan nan nan nan nan nan nan nan nan nan nan 4 nan 12 13 14 11 8 11 12 12 12 13 16 16 15 14 16 14 15 13 13 11 9
nan nan nan nan nan nan nan nan nan nan nan nan nan nan nan nan nan nan nan nan nan nan nan nan nan nan nan nan nan nan nan nan nan nan nan nan nan nan nan nan nan nan nan nan nan nan nan nan nan nan nan nan nan nan nan nan nan nan nan nan nan nan nan nan nan 7 9 12 11 11 12 11 11 11 13 12 13 15 16 16 16 16 16 15 14 14 12 11
nan nan nan nan nan nan nan nan nan nan nan nan nan nan nan nan nan nan nan nan nan nan nan nan nan nan nan nan nan nan nan nan nan nan nan nan nan nan nan nan nan nan nan nan nan nan nan nan nan nan nan nan nan nan nan nan nan nan nan nan nan nan nan nan nan 7 11 14 7 11 11 10 7 9 10 11 14 16 16 16 16 17 17 17 16 13 13 10
nan nan nan nan nan nan nan nan nan nan nan nan nan nan nan nan nan nan nan nan nan nan nan nan nan nan nan nan nan nan nan nan nan nan nan nan nan nan nan nan nan nan nan nan nan nan nan nan nan nan nan nan nan nan nan nan nan nan nan nan nan nan nan nan 6 6 8 12 6 10 12 8 8 9 9 10 12 11 12 15 14 14 16 16 17 16 14 13
nan nan nan nan nan nan nan nan nan nan nan nan nan nan nan nan nan nan nan nan nan nan nan nan nan nan nan nan nan nan nan nan nan nan nan nan nan nan nan nan nan nan nan nan nan nan nan nan nan nan nan nan nan nan nan nan nan nan nan nan nan nan nan nan 4 6 9 11 6 8 11 8 11 11 9 8 10 11 12 13 14 14 15 15 16 17 17 16
nan nan nan nan nan nan nan nan nan nan nan nan nan nan nan nan nan nan nan nan nan nan nan nan nan nan nan nan nan nan nan nan nan nan nan nan nan nan nan nan nan nan nan nan nan nan nan nan nan nan nan nan nan nan nan nan nan nan nan nan nan nan nan nan 6 6 9 11 10 10 12 10 13 12 12 11 12 14 14 15 15 14 14 14 15 16 18 17
nan nan nan nan nan nan nan nan nan nan nan nan nan nan nan nan nan nan nan nan nan nan nan nan nan nan nan nan nan nan nan nan nan nan nan nan nan nan nan nan nan nan nan nan nan nan nan nan nan nan nan nan nan nan nan nan nan nan nan nan nan nan nan nan nan 10 11 10 10 12 nan 10 13 9 9 12 14 14 15 16 15 15 16 16 17 16 17 17
nan nan nan nan nan nan nan nan nan nan nan nan nan nan nan nan nan nan nan nan nan nan nan nan nan nan nan nan nan nan nan nan nan nan nan nan nan nan nan nan nan nan nan nan nan nan nan nan nan nan nan nan nan nan nan nan nan nan nan nan nan nan nan nan nan nan nan nan 5 11 nan nan nan 11 12 14 15 16 16 15 16 16 16 17 16 16 15 15
nan nan nan nan nan nan nan nan nan nan nan nan nan nan nan nan nan nan nan nan nan nan nan nan nan nan nan nan nan nan nan nan nan nan nan nan nan nan nan nan nan nan nan nan nan nan nan nan nan nan nan nan nan nan nan nan nan nan nan nan nan nan nan nan nan nan nan nan nan nan nan nan nan 11 12 15 17 18 18 17 17 17 15 15 16 16 15 15
nan nan nan nan nan nan nan nan nan nan nan nan nan nan nan nan nan nan nan nan nan nan nan nan nan nan nan nan nan nan nan nan nan nan nan nan nan nan nan nan nan nan nan nan nan nan nan nan nan nan nan nan nan nan nan nan nan nan nan nan nan nan nan nan nan nan nan nan nan nan nan nan nan 14 14 16 17 19 18 18 19 18 18 17 16 17 18 17
nan nan nan nan nan nan nan nan nan nan nan nan nan nan nan nan nan nan nan nan nan nan nan nan nan nan nan nan nan nan nan nan nan nan nan nan nan nan nan nan nan nan nan nan nan nan nan nan nan nan nan nan nan nan nan nan nan nan nan nan nan nan nan nan nan nan nan nan nan nan nan nan nan 17 15 11 12 18 20 21 20 20 20 18 18 18 19 19
nan nan nan nan nan nan nan nan nan nan nan nan nan nan nan nan nan nan nan nan nan nan nan nan nan nan nan nan nan nan nan nan nan nan nan nan nan nan nan nan nan nan nan nan nan nan nan nan nan nan nan nan nan nan nan nan nan nan nan nan nan nan nan nan nan nan nan nan nan nan nan nan nan 11 12 14 13 16 21 21 22 23 22 21 20 20 19 20
nan nan nan nan nan nan nan nan nan nan nan nan nan nan nan nan nan nan nan nan nan nan nan nan nan nan nan nan nan nan nan nan nan nan nan nan nan nan nan nan nan nan nan nan nan nan nan nan nan nan nan nan nan nan nan nan nan nan nan nan nan nan nan nan nan nan nan nan 10 nan nan nan nan 12 15 16 17 16 17 22 24 24 24 23 21 22 21 21
nan nan nan nan nan nan nan nan nan nan nan nan nan nan nan nan nan nan nan nan nan nan nan nan nan nan nan nan nan nan nan nan nan nan nan nan nan nan nan nan nan nan nan nan nan nan nan nan nan nan nan nan nan nan nan nan nan nan nan nan nan nan nan nan nan nan nan nan 13 11 nan nan nan nan 18 19 19 19 17 19 23 25 25 25 24 24 24 22
nan nan nan nan nan nan nan nan nan nan nan nan nan nan nan nan nan nan nan nan nan nan nan nan nan nan nan nan nan nan nan nan nan nan nan nan nan nan nan nan nan nan nan nan nan nan nan nan nan nan nan nan nan nan nan nan nan nan nan nan nan nan nan nan nan nan nan nan nan nan nan nan nan 18 17 20 21 22 21 22 22 23 24 25 26 25 25 25
nan nan nan nan nan nan nan nan nan nan nan nan nan nan nan nan nan nan nan nan nan nan nan nan nan nan nan nan nan nan nan nan nan nan nan nan nan nan nan nan nan nan nan nan nan nan nan nan nan nan nan nan nan nan nan nan nan nan nan nan nan nan nan nan nan nan nan nan nan nan nan nan 8 21 18 22 25 23 23 23 23 24 24 25 25 25 27 26
nan nan nan nan nan nan nan nan nan nan nan nan nan nan nan nan nan nan nan nan nan nan nan nan nan nan nan nan nan nan nan nan nan nan nan nan nan nan nan nan nan nan nan nan nan nan nan nan nan nan nan nan nan nan nan nan nan nan nan nan nan nan nan nan nan nan nan nan nan 18 nan 14 12 24 24 23 25 24 23 25 24 25 25 26 26 27 26 27
nan nan nan nan nan nan nan nan nan nan nan nan nan nan nan nan nan nan nan nan nan nan nan nan nan nan nan nan nan nan nan nan nan nan nan nan nan nan nan nan nan nan nan nan nan nan nan nan nan nan nan nan nan nan nan nan nan nan nan nan nan nan nan nan nan nan nan nan nan nan nan 17 23 21 24 25 26 26 24 25 26 26 27 25 27 27 27 26
nan nan nan nan nan nan nan nan nan nan nan nan nan nan nan nan nan nan nan nan nan nan nan nan nan nan nan nan nan nan nan nan nan nan nan nan nan nan nan nan nan nan nan nan nan nan nan nan nan nan nan nan nan nan nan nan nan nan nan nan nan nan nan nan nan nan nan nan nan 17 nan nan 18 18 25 27 26 27 26 26 28 27 26 27 28 27 28 26
nan nan nan nan nan nan nan nan nan nan nan nan nan nan nan nan nan nan nan nan nan nan nan nan nan nan nan nan nan nan nan nan nan nan nan nan nan nan nan nan nan nan nan nan nan nan nan nan nan nan nan nan nan nan nan nan nan nan nan nan nan nan nan nan nan nan nan nan nan nan 18 nan nan 18 28 29 26 28 28 28 28 28 28 28 28 29 28 26
nan nan nan nan nan nan nan nan nan nan nan nan nan nan nan nan nan nan nan nan nan nan nan nan nan nan nan nan nan nan nan nan nan nan nan nan nan nan nan nan nan nan nan nan nan nan nan nan nan nan nan nan nan nan nan nan nan nan nan nan nan nan nan nan nan nan nan nan nan nan 22 14 nan 21 23 26 27 29 30 28 28 29 29 28 28 26 27 26
nan 9 nan nan nan nan nan nan nan nan nan nan nan nan nan nan nan nan nan nan nan nan nan nan nan nan nan nan nan nan nan nan nan nan nan nan nan nan nan nan nan nan nan nan nan nan nan nan nan nan nan nan nan nan nan nan nan nan nan nan nan nan nan nan nan nan nan nan nan nan nan nan 29 22 24 27 25 30 30 29 29 28 28 29 29 28 28 27
11 13 nan nan nan nan nan nan nan nan nan nan nan nan nan nan nan nan nan nan nan nan nan nan nan nan nan nan nan nan nan nan nan nan nan nan nan nan nan nan nan nan nan nan nan nan nan nan nan nan nan nan nan nan nan nan nan nan nan nan nan nan nan nan nan nan nan nan nan nan nan 26 31 26 26 30 30 31 30 30 30 29 29 28 28 29 29 29
nan 12 nan nan nan nan nan nan nan nan nan nan nan nan nan nan nan nan nan nan nan nan nan nan nan nan nan nan nan nan nan nan nan nan nan nan nan nan nan nan nan nan nan nan nan nan nan nan nan nan nan nan nan nan nan nan nan nan nan nan nan nan nan nan nan nan nan nan nan nan nan nan 31 30 29 32 32 30 30 30 29 29 27 27 28 29 29 30
10 19 nan nan nan nan nan nan nan nan nan nan nan nan nan nan nan nan nan nan nan nan nan nan nan nan nan nan nan nan nan nan nan nan nan nan nan nan nan nan nan nan nan nan nan nan 19 nan nan nan nan nan nan nan nan nan nan nan nan nan nan nan nan nan nan nan nan nan nan nan nan 29 33 31 30 33 32 30 31 31 28 27 28 28 29 29 29 30
13 14 nan nan nan nan nan 17 nan nan nan nan nan nan nan nan nan nan nan nan nan nan nan nan nan nan nan nan nan nan nan nan nan nan nan nan nan nan nan nan nan nan nan nan nan nan nan nan nan nan nan nan nan nan nan nan nan nan nan nan nan nan nan nan nan nan nan nan nan nan nan nan 35 32 32 31 32 31 30 31 27 27 28 28 29 30 30 30
11 11 14 nan nan nan 19 25 24 24 nan nan 26 nan nan nan nan nan nan nan nan nan nan nan nan nan nan nan nan nan nan nan nan nan nan nan nan nan nan nan nan nan nan nan nan nan nan nan nan nan nan nan nan nan nan nan nan nan nan nan nan nan nan nan nan nan nan 24 24 nan nan 35 37 34 33 32 31 31 29 29 29 29 30 28 29 30 30 30
14 11 15 16 nan nan nan nan nan 24 24 25 nan nan nan nan nan nan nan nan nan nan nan nan nan nan nan nan nan nan nan nan nan nan nan nan nan nan nan nan nan nan nan nan nan nan nan nan nan nan nan nan nan nan nan nan nan nan nan nan nan nan nan nan nan nan nan nan 25 22 nan nan 32 35 32 32 30 28 29 29 29 28 28 27 28 29 29 30
nan 14 17 16 20 19 22 23 22 22 25 30 25 29 nan nan nan nan nan nan nan nan nan nan nan nan nan nan nan nan nan nan nan nan nan nan nan nan nan nan nan nan nan nan nan nan nan nan nan nan nan nan nan nan nan nan nan nan nan nan nan nan nan nan nan nan 29 nan nan 32 31 nan nan 31 31 30 31 30 29 29 29 28 27 26 27 27 28 29
15 20 16 20 20 24 23 25 28 27 26 24 26 27 26 25 nan nan nan nan nan nan nan nan nan nan nan nan nan nan nan nan nan nan nan nan nan nan nan nan nan 26 20 nan nan nan nan nan nan nan nan nan nan nan nan nan nan nan nan nan nan nan nan nan nan nan nan nan nan 34 30 nan nan 29 32 29 30 29 28 30 29 27 26 26 26 26 27 28
nan nan 18 nan 16 23 29 32 30 27 26 25 27 26 25 25 nan nan nan nan nan nan nan nan nan nan nan nan nan nan nan nan nan nan nan nan nan nan nan nan nan nan nan nan nan nan nan nan nan nan nan nan nan nan nan nan nan nan nan nan nan nan nan nan nan nan nan nan nan nan 25 24 nan 28 31 31 30 29 30 30 28 27 26 26 26 26 27 28
nan nan 21 nan nan nan 22 26 27 27 26 29 27 30 nan nan nan nan nan nan nan nan nan nan nan nan nan nan nan nan nan nan nan nan nan nan nan nan nan nan nan nan nan nan nan nan nan nan nan nan nan nan nan nan nan nan nan nan nan nan nan nan nan nan nan 25 nan nan nan nan nan 23 31 35 32 30 29 30 28 28 27 27 27 27 26 26 28 28
nan nan nan nan 18 19 21 23 27 28 27 28 28 34 nan nan nan nan nan nan nan nan nan nan nan nan nan nan nan nan nan nan nan nan nan nan nan nan nan nan nan nan nan nan nan nan nan nan nan nan nan nan nan nan nan nan nan nan nan nan nan nan nan nan nan nan nan nan nan 25 24 nan 36 34 32 29 29 29 28 28 27 nan nan nan 26 27 28 27
nan nan nan nan 19 20 nan nan 24 26 28 36 nan nan nan 34 nan nan nan nan nan nan nan nan nan nan nan nan nan nan nan nan nan nan nan nan nan nan nan nan nan nan nan nan nan nan nan nan nan nan nan nan nan nan nan nan nan nan nan nan nan nan nan nan nan 27 24 nan nan nan 25 35 33 32 nan 28 nan nan nan nan 28 nan nan nan 27 27 26 26
Wind_Direction
nan nan nan nan nan nan nan nan nan nan nan nan nan nan nan nan nan nan nan nan nan nan nan nan nan nan nan nan nan nan nan nan nan nan nan nan nan nan nan 5 9 21 32 45 53 59 78 105 116 128 117 118 126 113 165 112 123 107 129 171 191 192 198 182 185 179 180 181 179 70 44 61 51 39 109 108 84 121 145 106 191 185 195 199 231 251 267 275
nan nan nan nan nan nan nan nan nan nan nan nan nan nan nan nan nan nan nan nan nan nan nan nan nan nan nan nan nan nan nan nan nan nan nan 354 15 21 16 9 17 23 37 48 51 66 94 92 89 83 98 105 134 121 115 140 113 142 171 213 206 192 216 168 182 181 171 200 188 148 67 85 120 9 33 84 70 85 84 92 110 232 222 237 247 265 277 279
nan nan nan nan nan nan nan nan nan nan nan nan nan nan nan nan nan nan nan nan nan nan nan nan nan nan nan nan nan nan nan nan nan nan 41 348 10 23 13 15 22 30 46 54 65 89 99 97 84 84 100 110 103 141 112 166 116 188 147 225 223 194 218 202 188 191 175 204 204 205 220 94 247 32 309 72 86 66 84 86 49 72 290 277 269 268 274 280
nan nan nan nan nan nan nan nan nan nan nan nan nan nan nan nan nan nan nan nan nan nan nan nan nan nan nan nan nan nan nan nan nan nan 17 11 7 19 16 17 25 40 62 82 81 92 106 102 90 89 103 97 121 107 119 183 120 191 154 216 214 207 213 236 211 197 185 201 211 180 211 238 323 304 13 6 69 69 105 101 100 53 310 303 292 285 281 284
nan nan nan nan nan nan nan nan nan nan nan nan nan nan nan nan nan nan nan nan nan nan nan nan nan nan nan nan nan nan nan nan nan 359 345 6 12 23 20 20 28 46 77 91 90 90 95 95 91 98 96 110 110 78 160 128 152 114 202 195 197 205 208 231 233 224 210 195 211 202 175 202 248 292 23 45 75 216 167 117 75 94 295 306 308 300 290 295
nan nan nan nan nan nan nan nan nan nan nan nan nan nan nan nan nan nan nan nan nan nan nan nan nan nan nan nan nan nan nan nan nan 360 359 4 15 17 21 23 36 66 86 89 89 91 87 88 87 87 98 nan nan nan nan 136 121 136 248 203 190 192 188 219 242 271 173 254 235 209 170 203 73 275 22 36 48 270 95 217 173 33 313 302 298 305 302 299
nan nan nan nan nan nan nan nan nan nan nan nan nan nan nan nan nan nan nan nan nan nan nan nan nan nan nan nan nan nan nan nan 29 351 357 360 12 3 16 24 47 72 82 88 89 89 87 90 88 nan nan nan nan nan nan 123 77 122 171 174 187 153 124 212 229 322 37 201 210 169 135 135 137 109 307 48 2 352 268 232 229 306 319 315 311 320 312 304
nan nan nan nan nan nan nan nan nan nan nan nan nan nan nan nan nan nan nan nan nan nan nan nan nan nan nan nan nan nan nan nan 356 354 351 352 4 2 9 23 44 60 73 86 93 94 nan nan nan nan nan nan nan nan nan 108 61 132 nan 169 147 108 89 80 59 30 13 347 138 113 105 170 166 152 133 89 356 349 0 289 301 303 319 316 310 316 312 299
nan nan nan nan nan nan nan nan nan nan nan nan nan nan nan nan nan nan nan nan nan nan nan nan nan nan nan nan nan nan nan nan 45 353 348 359 2 2 14 30 nan nan nan nan nan nan nan nan nan nan nan nan nan nan nan nan 339 nan nan 134 131 107 88 71 52 36 30 7 39 57 75 357 189 157 95 92 337 307 314 320 314 321 327 321 308 308 310 302
nan nan nan nan nan nan nan nan nan nan nan nan nan nan nan nan nan nan nan nan nan nan nan nan nan nan nan nan nan nan nan nan 9 357 359 2 3 11 29 38 34 nan nan nan nan nan nan nan nan nan nan nan nan nan nan nan nan nan nan nan 117 110 79 37 64 31 23 32 10 60 69 328 276 97 288 272 267 305 331 318 321 331 335 331 309 310 310 307
nan nan nan nan nan nan nan nan nan nan nan nan nan nan nan nan nan nan nan nan nan nan nan nan nan nan nan nan nan nan nan nan 17 10 7 8 6 22 38 nan nan nan nan nan nan nan nan nan nan nan nan nan nan nan nan nan nan nan nan nan 67 52 64 49 63 32 28 16 17 41 61 28 11 20 61 258 275 301 316 315 322 323 317 319 322 317 309 303
nan nan nan nan nan nan nan nan nan nan nan nan nan nan nan nan nan nan nan nan nan nan nan nan nan nan nan nan nan nan nan nan nan 16 18 nan nan nan nan nan nan nan nan nan nan nan nan nan nan nan nan nan nan nan nan nan nan nan nan 107 61 33 40 53 50 29 42 4 14 23 52 33 3 347 293 297 310 323 312 315 318 319 305 310 312 311 308 308
nan nan nan nan nan nan nan nan nan nan nan nan nan nan nan nan nan nan nan nan nan nan nan nan nan nan nan nan nan nan nan nan nan nan nan nan nan nan nan nan nan nan nan nan nan nan nan nan nan nan nan nan nan nan nan nan nan nan 68 95 78 31 42 40 59 44 39 359 36 37 40 305 313 316 311 305 310 323 321 322 322 315 312 304 305 302 306 314
nan nan nan nan nan nan nan nan nan nan nan nan nan nan nan nan nan nan nan nan nan nan nan nan nan nan nan nan nan nan nan nan nan nan nan nan nan nan nan nan nan nan nan nan nan nan nan nan nan nan nan nan nan nan nan nan nan nan nan 77 nan nan 84 40 69 36 44 21 54 52 79 316 301 316 321 338 324 328 327 319 329 322 324 316 309 306 306 315
nan nan nan nan nan nan nan nan nan nan nan nan nan nan nan nan nan nan nan nan nan nan nan nan nan nan nan nan nan nan nan nan nan nan nan nan nan nan nan nan nan nan nan nan nan nan nan nan nan nan nan nan nan nan nan nan nan nan nan nan nan nan 66 52 78 53 77 33 56 70 56 310 291 287 312 334 335 334 328 320 329 329 331 324 317 318 318 323
nan nan nan nan nan nan nan nan nan nan nan nan nan nan nan nan nan nan nan nan nan nan nan nan nan nan nan nan nan nan nan nan nan nan nan nan nan nan nan nan nan nan nan nan nan nan nan nan nan nan nan nan nan nan nan nan nan nan nan nan nan nan nan 43 74 64 97 27 42 58 85 31 329 325 337 351 354 354 337 331 334 331 331 328 323 323 336 333
nan nan nan nan nan nan nan nan nan nan nan nan nan nan nan nan nan nan nan nan nan nan nan nan nan nan nan nan nan nan nan nan nan nan nan nan nan nan nan nan nan nan nan nan nan nan nan nan nan nan nan nan nan nan nan nan nan nan nan nan nan nan nan nan 19 73 48 69 49 43 55 40 356 10 2 6 15 16 7 357 352 348 340 330 325 328 344 340
nan nan nan nan nan nan nan nan nan nan nan nan nan nan nan nan nan nan nan nan nan nan nan nan nan nan nan nan nan nan nan nan nan nan nan nan nan nan nan nan nan nan nan nan nan nan nan nan nan nan nan nan nan nan nan nan nan nan nan nan nan nan nan nan nan 30 51 54 73 45 58 50 23 17 25 17 22 19 20 13 5 5 356 343 336 333 339 335
nan nan nan nan nan nan nan nan nan nan nan nan nan nan nan nan nan nan nan nan nan nan nan nan nan nan nan nan nan nan nan nan nan nan nan nan nan nan nan nan nan nan nan nan nan nan nan nan nan nan nan nan nan nan nan nan nan nan nan nan nan nan nan nan nan 49 nan 50 52 50 52 27 10 17 15 16 15 26 21 13 5 3 0 355 354 340 339 334
nan nan nan nan nan nan nan nan nan nan nan nan nan nan nan nan nan nan nan nan nan nan nan nan nan nan nan nan nan nan nan nan nan nan nan nan nan nan nan nan nan nan nan nan nan nan nan nan nan nan nan nan nan nan nan nan nan nan nan nan nan nan nan nan nan 70 59 55 46 56 58 57 50 35 23 21 13 18 21 13 4 3 357 356 359 350 349 345
nan nan nan nan nan nan nan nan nan nan nan nan nan nan nan nan nan nan nan nan nan nan nan nan nan nan nan nan nan nan nan nan nan nan nan nan nan nan nan nan nan nan nan nan nan nan nan nan nan nan nan nan nan nan nan nan nan nan nan nan nan nan nan nan nan 73 60 65 14 42 47 40 37 32 25 21 22 17 11 14 13 2 2 351 356 353 348 349
nan nan nan nan nan nan nan nan nan nan nan nan nan nan nan nan nan nan nan nan nan nan nan nan nan nan nan nan nan nan nan nan nan nan nan nan nan nan nan nan nan nan nan nan nan nan nan nan nan nan nan nan nan nan nan nan nan nan nan nan nan nan nan nan 87 67 58 68 37 35 42 18 21 16 6 12 23 12 8 13 13 5 1 359 353 352 351 350
nan nan nan nan nan nan nan nan nan nan nan nan nan nan nan nan nan nan nan nan nan nan nan nan nan nan nan nan nan nan nan nan nan nan nan nan nan nan nan nan nan nan nan nan nan nan nan nan nan nan nan nan nan nan nan nan nan nan nan nan nan nan nan nan 81 86 64 86 89 48 64 4 13 16 4 3 11 9 14 14 13 6 4 1 356 352 352 354
nan nan nan nan nan nan nan nan nan nan nan nan nan nan nan nan nan nan nan nan nan nan nan nan nan nan nan nan nan nan nan nan nan nan nan nan nan nan nan nan nan nan nan nan nan nan nan nan nan nan nan nan nan nan nan nan nan nan nan nan nan nan nan nan 134 99 74 57 64 67 55 20 17 7 359 341 347 347 358 1 3 2 360 358 358 355 355 352
nan nan nan nan nan nan nan nan nan nan nan nan nan nan nan nan nan nan nan nan nan nan nan nan nan nan nan nan nan nan nan nan nan nan nan nan nan nan nan nan nan nan nan nan nan nan nan nan nan nan nan nan nan nan nan nan nan nan nan nan nan nan nan nan nan 82 68 41 37 59 nan 14 347 351 341 344 344 332 339 346 346 346 350 355 0 358 354 353
nan nan nan nan nan nan nan nan nan nan nan nan nan nan nan nan nan nan nan nan nan nan nan nan nan nan nan nan nan nan nan nan nan nan nan nan nan nan nan nan nan nan nan nan nan nan nan nan nan nan nan nan nan nan nan nan nan nan nan nan nan nan nan nan nan nan nan nan 344 55 nan nan nan 348 337 334 332 325 329 332 332 336 348 346 346 345 348 345
nan nan nan nan nan nan nan nan nan nan nan nan nan nan nan nan nan nan nan nan nan nan nan nan nan nan nan nan nan nan nan nan nan nan nan nan nan nan nan nan nan nan nan nan nan nan nan nan nan nan nan nan nan nan nan nan nan nan nan nan nan nan nan nan nan nan nan nan nan nan nan nan nan 328 331 328 322 321 320 320 323 323 322 324 329 327 332 335
nan nan nan nan nan nan nan nan nan nan nan nan nan nan nan nan nan nan nan nan nan nan nan nan nan nan nan nan nan nan nan nan nan nan nan nan nan nan nan nan nan nan nan nan nan nan nan nan nan nan nan nan nan nan nan nan nan nan nan nan nan nan nan nan nan nan nan nan nan nan nan nan nan 317 335 334 320 322 315 317 318 314 314 316 316 318 317 317
nan nan nan nan nan nan nan nan nan nan nan nan nan nan nan nan nan nan nan nan nan nan nan nan nan nan nan nan nan nan nan nan nan nan nan nan nan nan nan nan nan nan nan nan nan nan nan nan nan nan nan nan nan nan nan nan nan nan nan nan nan nan nan nan nan nan nan nan nan nan nan nan nan 308 328 339 330 325 318 316 313 310 310 311 311 312 310 311
nan nan nan nan nan nan nan nan nan nan nan nan nan nan nan nan nan nan nan nan nan nan nan nan nan nan nan nan nan nan nan nan nan nan nan nan nan nan nan nan nan nan nan nan nan nan nan nan nan nan nan nan nan nan nan nan nan nan nan nan nan nan nan nan nan nan nan nan nan nan nan nan nan 293 312 333 317 314 317 315 313 313 309 308 307 307 307 308
nan nan nan nan nan nan nan nan nan nan nan nan nan nan nan nan nan nan nan nan nan nan nan nan nan nan nan nan nan nan nan nan nan nan nan nan nan nan nan nan nan nan nan nan nan nan nan nan nan nan nan nan nan nan nan nan nan nan nan nan nan nan nan nan nan nan nan nan 298 nan nan nan nan 293 298 296 306 312 313 313 313 312 309 308 307 305 303 304
nan nan nan nan nan nan nan nan nan nan nan nan nan nan nan nan nan nan nan nan nan nan nan nan nan nan nan nan nan nan nan nan nan nan nan nan nan nan nan nan nan nan nan nan nan nan nan nan nan nan nan nan nan nan nan nan nan nan nan nan nan nan nan nan nan nan nan nan 294 301 nan nan nan nan 296 306 306 311 307 307 310 309 309 306 304 303 303 305
nan nan nan nan nan nan nan nan nan nan nan nan nan nan nan nan nan nan nan nan nan nan nan nan nan nan nan nan nan nan nan nan nan nan nan nan nan nan nan nan nan nan nan nan nan nan nan nan nan nan nan nan nan nan nan nan nan nan nan nan nan nan nan nan nan nan nan nan nan nan nan nan nan 292 304 305 305 307 305 304 302 299 301 301 302 302 302 301
nan nan nan nan nan nan nan nan nan nan nan nan nan nan nan nan nan nan nan nan nan nan nan nan nan nan nan nan nan nan nan nan nan nan nan nan nan nan nan nan nan nan nan nan nan nan nan nan nan nan nan nan nan nan nan nan nan nan nan nan nan nan nan nan nan nan nan nan nan nan nan nan 328 288 304 299 302 304 305 301 297 298 298 299 298 300 301 300
nan nan nan nan nan nan nan nan nan nan nan nan nan nan nan nan nan nan nan nan nan nan nan nan nan nan nan nan nan nan nan nan nan nan nan nan nan nan nan nan nan nan nan nan nan nan nan nan nan nan nan nan nan nan nan nan nan nan nan nan nan nan nan nan nan nan nan nan nan 321 nan 295 287 301 299 304 304 304 302 300 303 301 301 301 301 296 293 294
nan nan nan nan nan nan nan nan nan nan nan nan nan nan nan nan nan nan nan nan nan nan nan nan nan nan nan nan nan nan nan nan nan nan nan nan nan nan nan nan nan nan nan nan nan nan nan nan nan nan nan nan nan nan nan nan nan nan nan nan nan nan nan nan nan nan nan nan nan nan nan 313 295 313 307 308 308 306 307 305 304 300 299 299 295 293 290 291
nan nan nan nan nan nan nan nan nan nan nan nan nan nan nan nan nan nan nan nan nan nan nan nan nan nan nan nan nan nan nan nan nan nan nan nan nan nan nan nan nan nan nan nan nan nan nan nan nan nan nan nan nan nan nan nan nan nan nan nan nan nan nan nan nan nan nan nan nan 307 nan nan 308 301 312 311 314 313 311 309 302 302 303 300 295 293 292 291
nan nan nan nan nan nan nan nan nan nan nan nan nan nan nan nan nan nan nan nan nan nan nan nan nan nan nan nan nan nan nan nan nan nan nan nan nan nan nan nan nan nan nan nan nan nan nan nan nan nan nan nan nan nan nan nan nan nan nan nan nan nan nan nan nan nan nan nan nan nan 303 nan nan 294 312 315 317 315 312 306 307 306 301 298 296 294 292 291
nan nan nan nan nan nan nan nan nan nan nan nan nan nan nan nan nan nan nan nan nan nan nan nan nan nan nan nan nan nan nan nan nan nan nan nan nan nan nan nan nan nan nan nan nan nan nan nan nan nan nan nan nan nan nan nan nan nan nan nan nan nan nan nan nan nan nan nan nan nan 302 295 nan 277 292 304 313 312 310 310 307 300 300 298 293 292 290 290
nan 227 nan nan nan nan nan nan nan nan nan nan nan nan nan nan nan nan nan nan nan nan nan nan nan nan nan nan nan nan nan nan nan nan nan nan nan nan nan nan nan nan nan nan nan nan nan nan nan nan nan nan nan nan nan nan nan nan nan nan nan nan nan nan nan nan nan nan nan nan nan nan 283 281 280 281 296 306 308 305 301 300 296 293 292 291 291 291
225 210 nan nan nan nan nan nan nan nan nan nan nan nan nan nan nan nan nan nan nan nan nan nan nan nan nan nan nan nan nan nan nan nan nan nan nan nan nan nan nan nan nan nan nan nan nan nan nan nan nan nan nan nan nan nan nan nan nan nan nan nan nan nan nan nan nan nan nan nan nan 281 286 289 287 288 289 291 294 297 300 297 294 291 291 290 291 293
nan 221 nan nan nan nan nan nan nan nan nan nan nan nan nan nan nan nan nan nan nan nan nan nan nan nan nan nan nan nan nan nan nan nan nan nan nan nan nan nan nan nan nan nan nan nan nan nan nan nan nan nan nan nan nan nan nan nan nan nan nan nan nan nan nan nan nan nan nan nan nan nan 284 287 290 291 292 292 296 297 295 295 294 292 290 290 292 295
222 221 nan nan nan nan nan nan nan nan nan nan nan nan nan nan nan nan nan nan nan nan nan nan nan nan nan nan nan nan nan nan nan nan nan nan nan nan nan nan nan nan nan nan nan nan 237 nan nan nan nan nan nan nan nan nan nan nan nan nan nan nan nan nan nan nan nan nan nan nan nan 288 287 287 290 292 294 297 299 296 296 297 295 295 293 293 296 298
217 227 nan nan nan nan nan 194 nan nan nan nan nan nan nan nan nan nan nan nan nan nan nan nan nan nan nan nan nan nan nan nan nan nan nan nan nan nan nan nan nan nan nan nan nan nan nan nan nan nan nan nan nan nan nan nan nan nan nan nan nan nan nan nan nan nan nan nan nan nan nan nan 293 297 293 298 298 298 298 298 299 297 297 295 296 298 301 301
209 228 222 nan nan nan 195 203 197 199 nan nan 195 nan nan nan nan nan nan nan nan nan nan nan nan nan nan nan nan nan nan nan nan nan nan nan nan nan nan nan nan nan nan nan nan nan nan nan nan nan nan nan nan nan nan nan nan nan nan nan nan nan nan nan nan nan nan 290 293 nan nan 284 296 299 299 299 299 301 300 298 299 297 296 296 296 297 298 300
219 217 244 232 nan nan nan nan nan 198 198 200 nan nan nan nan nan nan nan nan nan nan nan nan nan nan nan nan nan nan nan nan nan nan nan nan nan nan nan nan nan nan nan nan nan nan nan nan nan nan nan nan nan nan nan nan nan nan nan nan nan nan nan nan nan nan nan nan 298 296 nan nan 298 301 301 300 299 297 298 297 294 294 294 295 297 296 296 297
nan 216 217 222 221 211 207 213 208 208 204 210 203 209 nan nan nan nan nan nan nan nan nan nan nan nan nan nan nan nan nan nan nan nan nan nan nan nan nan nan nan nan nan nan nan nan nan nan nan nan nan nan nan nan nan nan nan nan nan nan nan nan nan nan nan nan 275 nan nan 284 287 nan nan 295 300 299 297 296 296 294 294 294 294 296 297 298 298 300
219 227 220 225 209 216 210 222 210 204 203 206 205 207 204 206 nan nan nan nan nan nan nan nan nan nan nan nan nan nan nan nan nan nan nan nan nan nan nan nan nan 270 273 nan nan nan nan nan nan nan nan nan nan nan nan nan nan nan nan nan nan nan nan nan nan nan nan nan nan 286 294 nan nan 293 292 294 292 292 291 292 293 296 300 301 301 300 299 299
nan nan 225 nan 214 214 206 202 199 201 203 209 208 209 207 208 nan nan nan nan nan nan nan nan nan nan nan nan nan nan nan nan nan nan nan nan nan nan nan nan nan nan nan nan nan nan nan nan nan nan nan nan nan nan nan nan nan nan nan nan nan nan nan nan nan nan nan nan nan nan 294 297 nan 292 290 288 290 291 292 294 299 302 301 301 303 301 299 298
nan nan 221 nan nan nan 204 207 206 206 210 224 210 220 nan nan nan nan nan nan nan nan nan nan nan nan nan nan nan nan nan nan nan nan nan nan nan nan nan nan nan nan nan nan nan nan nan nan nan nan nan nan nan nan nan nan nan nan nan nan nan nan nan nan nan 299 nan nan nan nan nan 297 293 291 290 289 292 294 297 301 300 301 303 302 301 301 300 300
nan nan nan nan 209 222 210 212 208 209 210 220 209 218 nan nan nan nan nan nan nan nan nan nan nan nan nan nan nan nan nan nan nan nan nan nan nan nan nan nan nan nan nan nan nan nan nan nan nan nan nan nan nan nan nan nan nan nan nan nan nan nan nan nan nan nan nan nan nan 296 297 nan 290 289 289 294 297 301 301 300 300 nan nan nan 304 304 301 298
nan nan nan nan 214 227 nan nan 210 210 217 217 nan nan nan 213 nan nan nan nan nan nan nan nan nan nan nan nan nan nan nan nan nan nan nan nan nan nan nan nan nan nan nan nan nan nan nan nan nan nan nan nan nan nan nan nan nan nan nan nan nan nan nan nan nan 295 299 nan nan nan 289 280 285 286 nan 294 nan nan nan nan 299 nan nan nan 307 304 300 297